This is the latest recevied weather packets stored in our database for station/object WV8BRW. If no packets are shown the sender has not sent any weather packets the latest 10 day(s).
| Time | Temp. | Humidity | Pressure | Rain* | Wind** | Luminosity | Snow |
|---|---|---|---|---|---|---|---|
| 1777577680 | 12.22° C | 66% | 1014.5 hPa | 0 mm | - | 103 W/m² | - |
| 1777577378 | 12.22° C | 66% | 1014.4 hPa | 0 mm | - | 148 W/m² | - |
| 1777577073 | 12.78° C | 66% | 1014.5 hPa | 0 mm | - | 130 W/m² | - |
| 1777576771 | 12.78° C | 66% | 1014.5 hPa | 0 mm | - | 117 W/m² | - |
| 1777576470 | 12.78° C | 66% | 1014.2 hPa | 0 mm | - | 108 W/m² | - |
| 1777576167 | 13.89° C | 64% | 1014.2 hPa | 0 mm | - | 181 W/m² | - |
| 1777575861 | 13.89° C | 69% | 1014.2 hPa | 0 mm | - | 989 W/m² | - |
| 1777575559 | 13.89° C | 65% | 1014.2 hPa | 0 mm | - | 395 W/m² | - |
| 1777575254 | 14.44° C | 67% | 1014.1 hPa | 0 mm | - | 503 W/m² | - |
| 1777574950 | 13.33° C | 65% | 1014.3 hPa | 0 mm | - | 1100 W/m² | - |
| 1777574646 | 12.78° C | 67% | 1014.3 hPa | 0 mm | - | 504 W/m² | - |
| 1777574344 | 12.78° C | 65% | 1014.5 hPa | 0 mm | - | 987 W/m² | - |
| 1777574038 | 12.22° C | 68% | 1014.2 hPa | 0 mm | - | 256 W/m² | - |
| 1777573733 | 12.22° C | 68% | 1014.3 hPa | 0 mm | - | 298 W/m² | - |
| 1777573430 | 12.22° C | 70% | 1014.4 hPa | 0 mm | - | 271 W/m² | - |
| 1777573126 | 11.67° C | 69% | 1014.4 hPa | 0 mm | - | 311 W/m² | - |
| 1777572822 | 11.67° C | 70% | 1014.5 hPa | 0 mm | - | 365 W/m² | - |
| 1777572518 | 11.11° C | 72% | 1014.9 hPa | 0 mm | - | 386 W/m² | - |
| 1777572214 | 11.11° C | 71% | 1014.7 hPa | 0 mm | - | 175 W/m² | - |
| 1777571909 | 11.67° C | 70% | 1014.5 hPa | 0 mm | - | 188 W/m² | - |
| 1777571604 | 11.67° C | 69% | 1014.5 hPa | 0 mm | - | 282 W/m² | - |
| 1777571302 | 11.11° C | 71% | 1014.5 hPa | 0 mm | - | 469 W/m² | - |
| 1777570998 | 11.11° C | 71% | 1014.6 hPa | 0 mm | - | 254 W/m² | - |
| 1777570694 | 11.11° C | 72% | 1014.5 hPa | 0 mm | - | 234 W/m² | - |
| 1777570391 | 11.67° C | 68% | 1014.4 hPa | 0 mm | - | 400 W/m² | - |
* Rain latest hour (hover to see other rain measurements)
** Current wind speed in m/s (hover to see current wind gust speed)